{"data":{"norad_id":57331,"epoch":"2026-05-24T13:49:56.529408Z","epoch_age_seconds":114708,"freshness":"FRESH","line1":"1 57331U 23099D   26144.57634872  .00000365  00000+0  22814-4 0  9995","line2":"2 57331  43.0032 183.7209 0001905 278.7190  81.3446 15.27575764157684","mean_motion":15.27575764,"eccentricity":0.0001905,"inclination_deg":43.0032,"raan_deg":183.7209,"arg_perigee_deg":278.719,"mean_anomaly_deg":81.3446,"bstar":2.2814e-5,"rev_number":15768,"period_min":94.267010117346,"perigee_km":481.75472180923,"apogee_km":484.36883854448,"semimajor_km":6861.1987801769,"source":"CELESTRAK","updated_at":"2026-05-25T13:38:18.285856Z"}}